GW2632 Weather Reports


Display with metric or nautical units.
time (UTC)temp
F
wind
direction
speed
MPH
gust
MPH
rain 1hr
in
rain 24hr
in
rain mn
in
humidity
%
barometer
mb
20260508163824 89 357 2.0 3.0 0.00 0.00 0.00 53 1014.8
20260508163321 88 296 3.0 3.0 0.00 0.00 0.00 55 1014.6
20260508162817 87 343 4.0 7.0 0.00 0.00 0.00 58 1015.0
20260508162314 88 341 4.0 7.0 0.00 0.00 0.00 56 1014.8
20260508161811 89 314 3.0 7.0 0.00 0.00 0.00 55 1015.0
20260508161308 88 279 3.0 8.0 0.00 0.00 0.00 57 1015.1
20260508160806 87 299 2.0 4.0 0.00 0.00 0.00 58 1015.2
20260508160304 89 266 5.0 7.0 0.00 0.00 0.00 57 1015.4
20260508155800 89 63 2.0 8.0 0.00 0.00 0.00 56 1015.4
20260508155257 88 211 5.0 6.0 0.00 0.00 0.00 57 1015.5
20260508154754 88 273 2.0 6.0 0.00 0.00 0.00 59 1015.2
20260508154252 87 303 3.0 6.0 0.00 0.00 0.00 61 1015.3
20260508153748 85 325 0.0 2.0 0.00 0.00 0.00 64 1015.6
20260508153246 85 297 2.0 4.0 0.00 0.00 0.00 63 1015.5
20260508152742 86 300 4.0 6.0 0.00 0.00 0.00 61 1015.6
20260508152238 85 260 2.0 3.0 0.00 0.00 0.00 64 1015.5
20260508151734 85 277 3.0 6.0 0.00 0.00 0.00 65 1015.7
20260508151231 86 291 4.0 4.0 0.00 0.00 0.00 64 1015.8
20260508150728 86 313 4.0 8.0 0.00 0.00 0.00 65 1015.7
20260508150225 85 288 4.0 6.0 0.00 0.00 0.00 64 1015.7
20260508145720 85 244 7.0 9.0 0.00 0.00 0.00 64 1015.8
20260508145216 84 0 1.0 6.0 0.00 0.00 0.00 67 1015.5
20260508144714 84 337 3.0 9.0 0.00 0.00 0.00 69 1015.5
20260508144212 85 285 3.0 4.0 0.00 0.00 0.00 66 1015.5
20260508143709 86 307 1.0 6.0 0.00 0.00 0.00 65 1015.8
20260508143206 83 334 1.0 3.0 0.00 0.00 0.00 69 1015.7
20260508142702 82 310 2.0 6.0 0.00 0.00 0.00 72 1015.8
20260508142159 83 281 2.0 6.0 0.00 0.00 0.00 70 1015.8
20260508141655 83 323 2.0 4.0 0.00 0.00 0.00 71 1015.3
20260508141153 83 297 5.0 8.0 0.00 0.00 0.00 70 1015.7
20260508140651 82 339 2.0 6.0 0.00 0.00 0.00 73 1015.8
20260508140147 82 347 1.0 6.0 0.00 0.00 0.00 73 1015.5
20260508135643 84 265 3.0 9.0 0.00 0.00 0.00 72 1015.6
20260508135139 83 286 2.0 6.0 0.00 0.00 0.00 73 1015.6
20260508134636 81 339 0.0 3.0 0.00 0.00 0.00 78 1015.6
20260508134133 81 317 2.0 2.0 0.00 0.00 0.00 78 1015.8
20260508133629 82 299 4.0 4.0 0.00 0.00 0.00 76 1015.8
20260508133127 81 329 1.0 7.0 0.00 0.00 0.00 78 1015.6
20260508132625 81 294 3.0 6.0 0.00 0.00 0.00 78 1015.4
20260508132121 81 297 3.0 6.0 0.00 0.00 0.00 79 1015.6
20260508131617 80 333 1.0 4.0 0.00 0.00 0.00 81 1015.3
20260508131114 80 331 0.0 4.0 0.00 0.00 0.00 81 1015.3
20260508130611 80 318 2.0 4.0 0.00 0.00 0.00 82 1015.4
20260508130108 80 314 2.0 6.0 0.00 0.00 0.00 81 1015.5
20260508125607 80 305 1.0 4.0 0.00 0.00 0.00 81 1015.5
20260508125106 80 334 1.0 3.0 0.00 0.00 0.00 82 1015.5
20260508124604 80 310 1.0 2.0 0.00 0.00 0.00 82 1015.3
20260508124100 79 305 3.0 4.0 0.00 0.00 0.00 82 1015.5
20260508123559 79 318 2.0 2.0 0.00 0.00 0.00 84 1015.4
20260508123055 79 355 1.0 4.0 0.00 0.00 0.00 84 1015.1
20260508122552 79 331 1.0 6.0 0.00 0.00 0.00 84 1015.3
20260508122049 79 340 2.0 2.0 0.00 0.00 0.00 85 1015.2
20260508121548 78 236 2.0 3.0 0.00 0.00 0.00 86 1015.0
20260508121045 77 339 1.0 2.0 0.00 0.00 0.00 88 1015.4
20260508120542 77 335 1.0 2.0 0.00 0.00 0.00 90 1015.2
20260508120041 76 338 1.0 1.0 0.00 0.00 0.00 92 1014.9
20260508115537 75 306 1.0 2.0 0.00 0.00 0.00 93 1015.0
20260508115034 75 340 0.0 1.0 0.00 0.00 0.00 94 1015.2
20260508114531 74 354 1.0 2.0 0.00 0.00 0.00 95 1015.0
20260508114027 74 342 0.0 0.0 0.00 0.00 0.00 95 1014.8
20260508113525 73 341 0.0 2.0 0.00 0.00 0.00 95 1014.7
20260508113023 73 345 0.0 0.0 0.00 0.00 0.00 95 1014.5
20260508112519 73 352 0.0 0.0 0.00 0.00 0.00 95 1014.5
20260508112015 72 342 0.0 0.0 0.00 0.00 0.00 95 1014.7
20260508111513 72 347 0.0 0.0 0.00 0.00 0.00 95 1014.4
20260508111010 72 347 0.0 0.0 0.00 0.00 0.00 95 1014.6
20260508110508 72 347 0.0 0.0 0.00 0.00 0.00 95 1014.6
20260508110003 72 347 0.0 0.0 0.00 0.00 0.00 94 1014.4
20260508105458 72 347 0.0 0.0 0.00 0.00 0.00 94 1014.1
20260508104956 72 347 0.0 0.0 0.00 0.00 0.00 94 1014.1
20260508104453 72 347 0.0 0.0 0.00 0.00 0.00 94 1014.2
20260508103950 71 347 0.0 0.0 0.00 0.00 0.00 94 1014.0
20260508103447 71 347 0.0 0.0 0.00 0.00 0.00 94 1013.9
20260508102943 71 343 0.0 0.0 0.00 0.00 0.00 94 1013.7
20260508102442 71 342 0.0 0.0 0.00 0.00 0.00 94 1013.6
20260508101939 72 345 0.0 0.0 0.00 0.00 0.00 94 1013.6
20260508101436 72 345 0.0 0.0 0.00 0.00 0.00 94 1013.4
20260508100933 72 342 0.0 0.0 0.00 0.00 0.00 93 1013.4
20260508100432 71 343 0.0 0.0 0.00 0.00 0.00 93 1013.1
20260508095928 72 343 0.0 0.0 0.00 0.00 0.00 93 1013.4
20260508095426 72 343 0.0 0.0 0.00 0.00 0.00 93 1013.4
20260508094922 72 343 0.0 0.0 0.00 0.00 0.00 93 1013.2
20260508094419 71 343 0.0 0.0 0.00 0.00 0.00 92 1013.3
20260508093916 72 343 0.0 0.0 0.00 0.00 0.00 92 1013.1
20260508093414 72 343 0.0 0.0 0.00 0.00 0.00 92 1013.1
20260508092911 72 343 0.0 0.0 0.00 0.00 0.00 92 1013.2
20260508092409 72 343 0.0 0.0 0.00 0.00 0.00 92 1013.2
20260508091907 72 343 0.0 0.0 0.00 0.00 0.00 92 1013.1
20260508091403 73 343 0.0 0.0 0.00 0.00 0.00 92 1013.1
20260508090901 73 343 0.0 0.0 0.00 0.00 0.00 92 1013.4
20260508090359 73 347 0.0 0.0 0.00 0.00 0.00 91 1013.0
20260508085854 73 346 0.0 0.0 0.00 0.00 0.00 91 1013.4
20260508085351 73 332 0.0 1.0 0.00 0.00 0.00 91 1013.4
20260508084848 73 340 0.0 1.0 0.00 0.00 0.00 91 1013.3
20260508084345 73 344 0.0 0.0 0.00 0.00 0.00 91 1013.3
20260508083843 73 344 0.0 1.0 0.00 0.00 0.00 91 1013.2
20260508083340 73 341 0.0 0.0 0.00 0.00 0.00 91 1013.7
20260508082839 73 341 0.0 1.0 0.00 0.00 0.00 90 1013.2
20260508082337 73 343 0.0 0.0 0.00 0.00 0.00 90 1013.3
20260508081834 73 344 0.0 0.0 0.00 0.00 0.00 90 1013.6
20260508081331 73 339 0.0 1.0 0.00 0.00 0.00 90 1013.2
20260508080828 73 343 0.0 0.0 0.00 0.00 0.00 90 1013.4
20260508080326 73 332 0.0 0.0 0.00 0.00 0.00 90 1013.5
20260508075822 73 341 0.0 0.0 0.00 0.00 0.00 90 1013.3
20260508075319 73 336 0.0 3.0 0.00 0.00 0.00 89 1013.3
20260508074817 73 339 0.0 0.0 0.00 0.00 0.00 89 1013.5
20260508074314 74 341 0.0 1.0 0.00 0.00 0.00 89 1013.4
20260508073811 74 4 1.0 2.0 0.00 0.00 0.00 89 1013.3
20260508073309 74 309 3.0 3.0 0.00 0.00 0.00 88 1013.4
20260508072805 74 340 0.0 2.0 0.00 0.00 0.00 88 1013.3
20260508072306 74 338 0.0 3.0 0.00 0.00 0.00 88 1013.3
20260508071759 74 351 0.0 0.0 0.00 0.00 0.00 88 1013.4
20260508071258 74 330 0.0 2.0 0.00 0.00 0.00 87 1013.3
20260508070754 74 315 1.0 4.0 0.00 0.00 0.00 87 1013.3
20260508070253 74 312 1.0 2.0 0.00 0.00 0.00 87 1013.4
20260508065749 74 2 0.0 1.0 0.00 0.00 0.00 87 1013.2
20260508065248 74 346 0.0 3.0 0.00 0.00 0.00 86 1013.4
20260508064746 74 339 0.0 2.0 0.00 0.00 0.00 86 1013.5
20260508064244 74 331 1.0 3.0 0.00 0.00 0.00 86 1013.4
20260508063740 75 327 2.0 3.0 0.00 0.00 0.00 86 1013.5
20260508063239 75 348 0.0 1.0 0.00 0.00 0.00 85 1013.7
20260508062735 75 332 2.0 2.0 0.00 0.00 0.00 85 1013.6
20260508062233 75 281 1.0 6.0 0.00 0.00 0.00 84 1013.5
20260508061730 75 345 2.0 2.0 0.00 0.00 0.00 84 1013.6
20260508061227 75 334 0.0 2.0 0.00 0.00 0.00 84 1013.6
20260508060723 75 319 1.0 1.0 0.00 0.00 0.00 83 1013.3
20260508060221 75 335 1.0 2.0 0.00 0.00 0.00 83 1013.7
20260508055716 75 342 0.0 1.0 0.00 0.00 0.00 82 1013.6
20260508055213 75 332 1.0 3.0 0.00 0.00 0.00 82 1013.7
20260508054710 75 336 0.0 2.0 0.00 0.00 0.00 81 1013.5
20260508054208 75 350 0.0 3.0 0.00 0.00 0.00 81 1013.8
20260508053705 75 343 0.0 1.0 0.00 0.00 0.00 80 1013.6
20260508053202 75 343 0.0 0.0 0.00 0.00 0.00 80 1014.1
20260508052659 75 338 0.0 1.0 0.00 0.00 0.00 79 1013.8
20260508052156 75 341 0.0 2.0 0.00 0.00 0.00 79 1014.1
20260508051652 75 344 0.0 2.0 0.00 0.00 0.00 78 1013.9
20260508051148 76 342 0.0 2.0 0.00 0.00 0.00 78 1014.1
20260508050644 76 315 2.0 2.0 0.00 0.00 0.00 78 1014.2
20260508050142 76 338 1.0 2.0 0.00 0.00 0.00 77 1013.9
20260508045637 76 329 1.0 2.0 0.00 0.00 0.00 76 1014.2
20260508045136 76 333 1.0 2.0 0.00 0.00 0.00 76 1014.0
20260508044632 76 322 2.0 6.0 0.00 0.00 0.00 76 1014.0
20260508044129 76 339 1.0 2.0 0.00 0.00 0.00 75 1013.9
20260508043625 76 323 2.0 4.0 0.00 0.00 0.00 75 1014.3
20260508043123 77 340 1.0 2.0 0.00 0.00 0.00 75 1014.2
20260508042619 77 313 2.0 4.0 0.00 0.00 0.00 75 1014.1
20260508042117 77 326 2.0 2.0 0.00 0.00 0.00 74 1013.9
20260508041613 77 317 2.0 3.0 0.00 0.00 0.00 74 1014.2
20260508041110 77 345 0.0 1.0 0.00 0.00 0.00 74 1014.0
20260508040606 77 327 2.0 3.0 0.00 0.00 0.00 73 1014.1
20260508040104 77 296 4.0 4.0 0.00 0.00 0.00 73 1014.0
20260508035601 77 315 2.0 4.0 0.00 0.00 0.00 73 1014.2
20260508035058 77 307 1.0 2.0 0.00 0.00 0.00 73 1014.1
20260508034554 78 345 2.0 7.0 0.00 0.00 0.00 72 1013.9
20260508034052 78 306 2.0 4.0 0.00 0.00 0.00 72 1014.1
20260508033549 78 301 1.0 2.0 0.00 0.00 0.00 71 1014.1
20260508033048 78 309 3.0 7.0 0.00 0.00 0.00 71 1013.9
20260508032544 78 326 1.0 4.0 0.00 0.00 0.00 71 1013.8
20260508032042 78 343 2.0 4.0 0.00 0.00 0.00 70 1013.9
20260508031538 79 288 1.0 4.0 0.00 0.00 0.00 70 1013.6
20260508031034 79 304 3.0 4.0 0.00 0.00 0.00 69 1014.0
20260508030531 79 293 4.0 6.0 0.00 0.00 0.00 68 1013.9
20260508030029 79 313 2.0 6.0 0.00 0.00 0.00 67 1013.9
20260508025524 79 330 3.0 4.0 0.00 0.00 0.00 68 1013.7
20260508025022 79 286 2.0 4.0 0.00 0.00 0.00 67 1013.7
20260508024518 80 288 3.0 3.0 0.00 0.00 0.00 67 1013.9
20260508024015 80 296 1.0 3.0 0.00 0.00 0.00 66 1013.6
20260508023511 80 280 3.0 4.0 0.00 0.00 0.00 66 1013.6
20260508023009 80 293 1.0 2.0 0.00 0.00 0.00 65 1013.5
20260508022505 80 269 4.0 4.0 0.00 0.00 0.00 64 1013.6
20260508022001 81 279 5.0 8.0 0.00 0.00 0.00 64 1013.5
20260508021458 81 339 3.0 6.0 0.00 0.00 0.00 63 1013.3
20260508020954 81 327 1.0 3.0 0.00 0.00 0.00 62 1013.3
20260508020452 81 309 1.0 2.0 0.00 0.00 0.00 61 1013.3
20260508015948 82 319 1.0 2.0 0.00 0.00 0.00 60 1013.4
20260508015446 82 308 3.0 4.0 0.00 0.00 0.00 59 1013.2
20260508014943 82 336 1.0 6.0 0.00 0.00 0.00 58 1013.2
20260508014440 82 292 1.0 3.0 0.00 0.00 0.00 57 1013.3
20260508013935 82 301 4.0 6.0 0.00 0.00 0.00 56 1013.1
20260508013432 82 318 1.0 8.0 0.00 0.00 0.00 55 1013.3
20260508012929 83 317 1.0 4.0 0.00 0.00 0.00 53 1013.3
20260508012426 83 325 2.0 2.0 0.00 0.00 0.00 52 1013.1
20260508011923 83 325 2.0 4.0 0.00 0.00 0.00 51 1012.9
20260508011421 83 308 4.0 7.0 0.00 0.00 0.00 50 1012.8
20260508010918 83 322 1.0 4.0 0.00 0.00 0.00 49 1012.9
20260508010415 84 304 4.0 8.0 0.00 0.00 0.00 47 1012.9
20260508005912 84 325 0.0 2.0 0.00 0.00 0.00 46 1013.0
20260508005409 84 335 2.0 3.0 0.00 0.00 0.00 45 1012.7
20260508004906 84 336 2.0 4.0 0.00 0.00 0.00 44 1012.8
20260508004402 84 276 3.0 6.0 0.00 0.00 0.00 42 1012.8
20260508003859 85 5 1.0 4.0 0.00 0.00 0.00 41 1012.7
20260508003355 85 333 1.0 3.0 0.00 0.00 0.00 40 1012.9
20260508002853 85 308 2.0 2.0 0.00 0.00 0.00 39 1012.9
20260508002349 86 339 1.0 3.0 0.00 0.00 0.00 38 1012.7
20260508001845 86 335 2.0 4.0 0.00 0.00 0.00 37 1012.8
20260508001341 86 328 2.0 6.0 0.00 0.00 0.00 36 1012.6
20260508000838 86 313 2.0 6.0 0.00 0.00 0.00 35 1012.6
20260508000335 87 293 3.0 4.0 0.00 0.00 0.00 35 1012.6
20260507235831 87 308 5.0 7.0 0.00 0.00 0.00 35 1012.5
20260507235329 87 312 2.0 6.0 0.00 0.00 0.00 36 1012.6
20260507234826 88 310 3.0 4.0 0.00 0.00 0.00 35 1012.5
20260507234322 88 304 1.0 2.0 0.00 0.00 0.00 35 1012.4
20260507233818 89 345 0.0 2.0 0.00 0.00 0.00 34 1012.5
20260507233316 89 334 2.0 4.0 0.00 0.00 0.00 34 1012.5
20260507232814 89 326 1.0 4.0 0.00 0.00 0.00 32 1012.4
20260507232310 90 333 2.0 4.0 0.00 0.00 0.00 31 1012.3
20260507231808 90 302 1.0 4.0 0.00 0.00 0.00 30 1012.4
20260507231304 91 326 4.0 6.0 0.00 0.00 0.00 29 1012.3
20260507230800 92 279 4.0 9.0 0.00 0.00 0.00 28 1012.3
20260507230258 92 342 2.0 7.0 0.00 0.00 0.00 27 1012.3
20260507225758 92 297 3.0 8.0 0.00 0.00 0.00 28 1012.3
20260507225254 93 319 3.0 9.0 0.00 0.00 0.00 28 1012.4
20260507224750 92 329 3.0 4.0 0.00 0.00 0.00 30 1012.3
20260507224247 92 275 5.0 6.0 0.00 0.00 0.00 32 1012.1
20260507223743 93 338 4.0 6.0 0.00 0.00 0.00 33 1012.2
20260507223240 93 10 3.0 6.0 0.00 0.00 0.00 32 1012.1
20260507222737 93 291 2.0 3.0 0.00 0.00 0.00 33 1012.0
20260507222233 93 288 5.0 9.0 0.00 0.00 0.00 32 1012.2
20260507221730 93 302 4.0 7.0 0.00 0.00 0.00 33 1012.2
20260507221226 93 297 5.0 10.0 0.00 0.00 0.00 35 1012.2
20260507220723 93 302 4.0 4.0 0.00 0.00 0.00 36 1011.8
20260507220221 94 254 4.0 6.0 0.00 0.00 0.00 37 1011.8
20260507215717 94 336 2.0 6.0 0.00 0.00 0.00 37 1012.0
20260507215215 94 295 1.0 7.0 0.00 0.00 0.00 36 1011.9
20260507214712 94 289 7.0 10.0 0.00 0.00 0.00 37 1012.0
20260507214209 95 295 4.0 8.0 0.00 0.00 0.00 36 1012.0
20260507213704 96 250 6.0 13.0 0.00 0.00 0.00 34 1011.9
20260507213202 95 38 2.0 4.0 0.00 0.00 0.00 31 1011.8
20260507212657 95 287 3.0 8.0 0.00 0.00 0.00 30 1012.1
20260507212154 95 309 1.0 3.0 0.00 0.00 0.00 31 1012.1
20260507211651 95 307 1.0 4.0 0.00 0.00 0.00 31 1012.1
20260507211147 95 279 5.0 10.0 0.00 0.00 0.00 31 1012.1
20260507210644 95 327 2.0 2.0 0.00 0.00 0.00 31 1012.0
20260507210141 95 220 4.0 8.0 0.00 0.00 0.00 31 1012.3
20260507205637 95 286 3.0 7.0 0.00 0.00 0.00 30 1012.2
20260507205134 95 336 4.0 7.0 0.00 0.00 0.00 30 1012.1
20260507204630 95 227 5.0 9.0 0.00 0.00 0.00 30 1012.1
20260507204128 95 201 7.0 13.0 0.00 0.00 0.00 32 1012.1
20260507203626 95 290 5.0 9.0 0.00 0.00 0.00 31 1012.4
20260507203123 96 224 2.0 6.0 0.00 0.00 0.00 31 1012.4
20260507202619 95 255 3.0 4.0 0.00 0.00 0.00 30 1012.5
20260507202115 95 238 1.0 7.0 0.00 0.00 0.00 30 1012.4
20260507201610 95 295 1.0 7.0 0.00 0.00 0.00 30 1012.6
20260507201108 95 214 3.0 11.0 0.00 0.00 0.00 30 1012.8
20260507200603 94 185 5.0 9.0 0.00 0.00 0.00 29 1012.7
20260507200059 95 208 5.0 9.0 0.00 0.00 0.00 29 1013.0
20260507195556 95 267 5.0 8.0 0.00 0.00 0.00 30 1012.7
20260507195054 96 214 4.0 10.0 0.00 0.00 0.00 29 1013.0
20260507194550 95 276 4.0 8.0 0.00 0.00 0.00 29 1013.2
20260507194046 95 197 5.0 7.0 0.00 0.00 0.00 30 1013.0
20260507193543 94 292 3.0 6.0 0.00 0.00 0.00 31 1013.1
20260507193040 95 199 7.0 11.0 0.00 0.00 0.00 31 1013.1
20260507192536 95 298 2.0 7.0 0.00 0.00 0.00 30 1013.5
20260507192033 94 335 2.0 6.0 0.00 0.00 0.00 31 1013.2
20260507191528 94 265 4.0 8.0 0.00 0.00 0.00 32 1013.2
20260507191026 94 257 3.0 7.0 0.00 0.00 0.00 30 1013.1
20260507190523 95 229 6.0 8.0 0.00 0.00 0.00 30 1013.5
20260507190022 96 275 3.0 8.0 0.00 0.00 0.00 28 1013.5
20260507185520 95 323 3.0 9.0 0.00 0.00 0.00 29 1013.8
20260507185016 93 333 2.0 8.0 0.00 0.00 0.00 36 1013.7
20260507184514 94 220 6.0 7.0 0.00 0.00 0.00 35 1013.7
20260507184012 93 220 3.0 10.0 0.00 0.00 0.00 37 1013.9
20260507183507 93 244 6.0 9.0 0.00 0.00 0.00 35 1013.9
20260507183005 94 226 5.0 7.0 0.00 0.00 0.00 34 1014.1
20260507182501 94 287 5.0 11.0 0.00 0.00 0.00 34 1014.3
20260507181957 94 275 7.0 9.0 0.00 0.00 0.00 33 1014.4
20260507181454 93 221 4.0 6.0 0.00 0.00 0.00 36 1014.3
20260507180950 92 208 4.0 11.0 0.00 0.00 0.00 36 1014.6
20260507180447 92 260 7.0 10.0 0.00 0.00 0.00 37 1014.5
20260507175943 93 241 8.0 10.0 0.00 0.00 0.00 37 1014.7
20260507175440 92 230 5.0 7.0 0.00 0.00 0.00 38 1015.0
20260507174938 92 249 7.0 10.0 0.00 0.00 0.00 38 1014.6
20260507174434 92 180 5.0 14.0 0.00 0.00 0.00 39 1014.8
20260507173932 92 239 6.0 10.0 0.00 0.00 0.00 39 1014.8
20260507173429 92 270 9.0 11.0 0.00 0.00 0.00 39 1014.8
20260507172926 92 245 7.0 11.0 0.00 0.00 0.00 40 1014.9
20260507172422 91 151 3.0 8.0 0.00 0.00 0.00 43 1014.8
20260507171918 91 249 9.0 13.0 0.00 0.00 0.00 42 1014.9
20260507171415 91 274 4.0 9.0 0.00 0.00 0.00 41 1014.8
20260507170912 91 226 5.0 7.0 0.00 0.00 0.00 42 1014.8
20260507170408 91 265 4.0 10.0 0.00 0.00 0.00 41 1014.9
20260507165905 92 272 3.0 8.0 0.00 0.00 0.00 43 1014.9
20260507165401 91 297 2.0 3.0 0.00 0.00 0.00 43 1014.7
20260507164856 91 239 2.0 10.0 0.00 0.00 0.00 43 1014.9
20260507164354 90 155 4.0 9.0 0.00 0.00 0.00 45 1014.9